Regional Weather Roundup
Issued by NWS Midland/Odessa, TX

Skip options and go directly to product.
Home | Oldest Version | Previous Version | Current Version | All | Graphics & Text | Save Text | Print | Product List | Glossary On

Skip product version selection by date and time.   
558
ASUS44 KMAF 031010
RWRMAF
MIDLAND AREA WEATHER ROUNDUP
NATIONAL WEATHER SERVICE MIDLAND TX
500 AM CDT TUE MAY 03 2016

...IN SOUTHWEST TEXAS AND SOUTHEAST NEW MEXICO...

CITY           SKY/WX    TMP DP  RH WIND       PRES   REMARKS
ALPINE         CLEAR     43  35  72 SW8       30.19S WCI  38
ANDREWS        FAIR      49  40  71 SW7       30.11S
ARTESIA        CLEAR     45  30  57 NW6       30.10S
BIG SPRING     CLEAR     44  39  82 CALM      30.14R
CARLSBAD       CLEAR     44  31  60 CALM      30.09S
DRYDEN           N/A     54  44  69 N6        30.11R
FORT STOCKTON  CLEAR     49  40  71 S9        30.11S
GUAD PASS      CLEAR     49  33  54 NE15      30.15S
HOBBS          CLEAR     45  36  70 SW6       30.13S
MARFA          CLEAR     37  30  75 CALM      30.17R
MIDLAND AIRPK  CLEAR     54  44  70 S5        30.12S
MIDLAND INTL   CLEAR     52  43  71 S6        30.11S
ODESSA         CLEAR     52  41  66 SW7       30.11F
PECOS          CLEAR     45  32  59 NE5       30.10S
PRESIDIO       FAIR      60  40  48 N14       30.07S
SEMINOLE       CLEAR     46  37  70 CALM      30.12S
SNYDER           N/A     47  42  83 S7        30.12S
WINK           CLEAR     47  38  71 E5        30.09S
$$
...OTHER STATIONS IN TEXAS...

CITY           SKY/WX    TMP DP  RH WIND       PRES   REMARKS
ABILENE        CLEAR     47  45  93 S7        30.10S
AMARILLO       CLEAR     41  35  79 S9        30.10S WCI  35
AUSTIN         MOCLDY    57  51  80 N8        30.08R
BROWNSVILLE    CLOUDY    67  56  67 NW12      30.01S
CORPUS CHRISTI CLOUDY    65  52  62 N15       30.04R
DALLAS FTW     CLEAR     53  45  74 NW7       30.07S
DEL RIO        MOCLDY    53  51  93 CALM      30.10S
EL PASO        CLEAR     57  31  37 E3        30.07S
HOUSTON INT    PTCLDY    57  53  86 N7        30.03S
LUBBOCK        CLEAR     47  36  65 SW3       30.10S
SAN ANGELO     CLEAR     43  41  93 SW5       30.11S
SAN ANTONIO    CLOUDY    57  50  77 CALM      30.09R
WACO           PTCLDY    50  47  89 NW5       30.08S
WICHITA FALLS  NOT AVBL
$$
...OTHER LOCATIONS IN NEW MEXICO...

CITY           SKY/WX    TMP DP  RH WIND       PRES   REMARKS
ALAMAGORDO     CLEAR     46  25  42 NE8       30.11R
ALBUQUERQUE    CLOUDY    51  36  56 CALM      30.15F
CANNON AFB     CLEAR     44  33  66 SW3       30.10F
CLOVIS         CLEAR     39  30  70 CALM      30.12S
HOLLOMAN AFB   CLEAR     45  25  45 N8        30.09S
ROSWELL        CLEAR     47  31  53 W3        30.09F
RUIDOSO          N/A     37  28  70 W7        30.20S WCI  32
SANTA FE       CLEAR     41  34  76 E5        30.17S WCI  38
TRUTH OR CONSE CLEAR     51  37  58 NE7       30.12S
TUCUMCARI      CLEAR     40  34  79 CALM      30.09S
$$

USA.gov is the U.S. government's official web portal to all federal, state and local government web resources and services.